Tracking 19431 objects as of 18-Dec-2018
HD Live streaming from Space Station
objects crossing your sky now

AALTO 1

Track AALTO 1 now!
10-day predictions
AALTO 1 is classified as:


NORAD ID: 42775
Int'l Code: 2017-036L
Perigee: 499.3 km
Apogee: 520.4 km
Inclination: 97.4 °
Period: 94.7 minutes
Semi major axis: 6880 km
RCS: Unknown
Launch date: June 23, 2017
Source: (FIN)
Launch site: SRIHARIKOTA (SRI)

Uplink (MHz):
Downlink (MHz): 437.220/2402.000
Beacon (MHz): 437.220
Mode: 9600bps FSK CW
Call sign: OH2A1S
Status: Active

aabbcc
Your satellite tracking list
Your tracking list is empty




NASA's NSSDC Master Catalog

Two Line Element Set (TLE):
1 42775U 17036L   18351.72687501 +.00000573 +00000-0 +28853-4 0  9991
2 42775 097.3774 047.5641 0015280 137.3259 222.9167 15.21037978082391
Source of the keplerian elements: AMSAT